sat.trackr.live / text

‹ back to catalog

SARI-1

NORAD 66668 · 2025-276C

PAYLOAD ACTIVE UNKNOWN

§ Identity

Operator
Country
SAUD
Launch date
2025-11-28
Launch site
AFWTR
Launch vehicle
Mass (kg)
RCS (m²)

External: N2YO · Heavens-Above · Gunter

§ Orbital elements

Epoch: 2026-09-20T11:35:42.823392Z

Period
93.93 min
Inclination
97.3957°
Eccentricity
0.0005825
Mean motion
15.32995868 rev/d
Perigee alt
462.9 km
Apogee alt
470.9 km
Semi-major
6,845.0 km
B*
7.9121e-4
RAAN
337.3754°
Arg perigee
39.0627°
Mean anomaly
321.1035°
Rev number
4,506

§ Raw data

SARI-11 66668U 25276C   26263.48313453  .00025206  00000+0  79121-3 0  99912 66668  97.3957 337.3754 0005825  39.0627 321.1035 15.32995868 45069

JSON: /api/v1/satellites/66668 · /tle

For live sub-satellite position, see the globe view (requires WebGL).

§ Visibility from observer

Set your observer location to see the next 7 days of passes ≥ 10°. The values pass through the URL so the page stays shareable.

No JS? Fill the form by hand. The geolocation button needs JavaScript.